Weather in Borki

Russia / Novgorod Oblast     58°22′51″N   31°00′27″E
temp.,
°C
wind,
m/s
gust,
m/s
humid.,
%
clouds,
%
prec.,
mm/h
press.,
hPa
HPBL,
m
31 july, sat
sat3100:00+16s376752 0.0 999130
03:00+16sw51266100 0.1 998815
06:00+15sw6127946 0.3 997980
09:00+18sw6117240 0.3 9981150
12:00+22w711438 0.1 9992156
15:00+25w7113481 0.1 10002720
18:00+24w374392 0.0 10012060
21:00+18sw39805 0.2 1003290
1 august, sun
sun100:00+15sw310975 0.1 1004262
03:00+14sw279790 0.1 1005159
06:00+15s3109145 0.0 1004296
09:00+18s377896 0.0 1004396
12:00+23ssw586016 0.6 10031450
15:00+25sw4944100 0.9 10022263
18:00+23w510507 0.0 10031354
21:00+20wsw41064100 0.0 1004483
2 august, mon
mon200:00+16sw2781100 0.0 1006153
03:00+15wsw228884 0.0 100636
06:00+15nne008889 0.0 100614
09:00+19s1372100 0.1 1005447
12:00+20s4672100 0.4 1004584
15:00+16ssw1397100 6.3 1003181
18:00+15nnw2499100 11.4 1001238
21:00+15nw3798100 14.5 1000346
3 august, tue
tue300:00+15w379863 0.1 1000301
03:00+14wsw3109839 0.1 1001295
06:00+13wsw3109734 0.0 1002327
09:00+16wsw48827 0.0 1003583
12:00+17wsw588199 1.0 1004993
15:00+19w4756100 1.1 1005991
18:00+20wnw585390 0.0 10061590
21:00+16nw37681 0.0 1008360
4 august, wed
wed400:00+11w39870 0.0 1010205
03:00+11w388739 0.0 1011188
06:00+11w26849 0.0 1013152
09:00+17w34605 0.0 1014533
12:00+20wsw344194 0.0 10152358
15:00+19sw2455100 0.0 1016405
18:00+19w125998 0.0 1016348
21:00+16e1164100 0.0 101613